Regional Weather Roundup
Issued by NWS Burlington, VT

Home | Current Version | Previous Version | Text Only | Print | Product List | Glossary On
Versions: 1 2 3 4 5 6 7 8 9 10 11 12 13 14 15 16 17 18 19 20 21 22 23 24 25 26 27 28 29 30 31 32 33 34 35 36 37 38 39 40 41 42 43 44 45 46 47 48 49 50
000
ASUS41 KBTV 270610
RWRBTV
VERMONT REGIONAL WEATHER ROUNDUP
NATIONAL WEATHER SERVICE BURLINGTON VT
200 AM EDT MON APR 27 2015

NOTE: "FAIR" INDICATES FEW OR NO CLOUDS BELOW 12,000 FEET WITH NO
SIGNIFICANT WEATHER AND/OR OBSTRUCTIONS TO VISIBILITY.

* THESE REPORTS ARE NOT UNDER NWS QUALITY CONTROL AND/OR DO NOT
  REPORT WEATHER SUCH AS PRECIPITATION AND FOG.

VTZ001>019-270700-
_____VERMONT_____


CITY           SKY/WX    TMP DP  RH WIND       PRES   REMARKS
BURLINGTON     CLOUDY    44  39  82 NW5       29.67S
6HR MIN TEMP:  44; 6HR MAX TEMP:  50; 6HR PCP: TRACE;

MONTPELIER     CLOUDY    41  36  82 W6        29.67F
6HR MIN TEMP:  41; 6HR MAX TEMP:  45;

MORRISVILLE    CLOUDY    43  37  79 NW3       29.66S
6HR MIN TEMP:  43; 6HR MAX TEMP:  47; 6HR PCP: TRACE;

ST. JOHNSBURY*   N/A     42  38  85 MISG      29.61F
6HR MIN TEMP:  42; 6HR MAX TEMP:  49; 6HR PCP:  0.01;

LYNDONVILLE*   CLOUDY    41  36  81 CALM      29.64S
6HR MIN TEMP:  40; 6HR MAX TEMP:  45;

MIDDLEBURY*    CLOUDY    44  38  80 CALM      29.66F
6HR MIN TEMP:  44; 6HR MAX TEMP:  48;

RUTLAND*       CLOUDY   N/A N/A N/A NW7       29.65S
SPRINGFIELD    LGT RAIN  42  34  73 NE5       29.64F
6HR MIN TEMP:  42; 6HR MAX TEMP:  50; 6HR PCP: TRACE;

HIGHGATE*      CLOUDY    43  39  87 N3        29.67S
6HR MIN TEMP:  43; 6HR MAX TEMP:  46;

NEWPORT*       DRIZZLE   39  37  94 CALM      29.65S
6HR MIN TEMP:  39; 6HR MAX TEMP:  44;

BENNINGTON     CLOUDY    45  32  60 W5        29.65F
6HR MIN TEMP:  45; 6HR MAX TEMP:  50;

SUTTON*          N/A     39 N/A N/A MISG        N/A

_____LAKE CHAMPLAIN_____


CITY           SKY/WX    TMP DP  RH WIND       PRES   REMARKS

$$

NYZ007-026>031-035-052-083-270700-
_____NORTHERN NEW YORK_____


CITY           SKY/WX    TMP DP  RH WIND       PRES   REMARKS
PLATTSBURGH    CLOUDY    42  41  96 CALM      29.67F
6HR MIN TEMP:  42; 6HR MAX TEMP:  50; 6HR PCP:  0.01;

SARANAC LAKE   CLOUDY    38  36  92 CALM      29.65F
6HR MIN TEMP:  38; 6HR MAX TEMP:  42; 6HR PCP: TRACE;

MASSENA        CLOUDY    42  36  79 NW6       29.73S
6HR MIN TEMP:  42; 6HR MAX TEMP:  50; 6HR PCP: TRACE;

OGDENSBURG*    CLOUDY    43  39  87 N8        29.74R
POTSDAM*       CLOUDY    41  39  93 NW3       29.72S
WATERTOWN      LGT RAIN  41  37  86 CALM      29.74S
6HR MIN TEMP:  40; 6HR MAX TEMP:  43; 6HR PCP: TRACE;

FT DRUM        CLOUDY    41  37  85 W2        29.71F
6HR MIN TEMP:  41; 6HR MAX TEMP:  43;

ALBANY         CLOUDY    46  33  60 W7        29.69S
6HR MIN TEMP:  46; 6HR MAX TEMP:  52;

GLENS FALLS    CLOUDY    48  32  53 NW7       29.67S
6HR MIN TEMP:  48; 6HR MAX TEMP:  51;


$$
NHZ002-005-011-270700-
_____NEW HAMPSHIRE_____


CITY           SKY/WX    TMP DP  RH WIND       PRES   REMARKS
LEBANON        CLOUDY    47  34  60 CALM      29.63F
6HR MIN TEMP:  45; 6HR MAX TEMP:  50;

KEENE          CLOUDY    43  34  70 S3        29.64S
6HR MIN TEMP:  43; 6HR MAX TEMP:  52;

MT WASHINGTON  SNOW      23  23 100 NW32        N/A  VSB 0   WCI   5
6HR MIN TEMP:  22; 6HR MAX TEMP:  22; 6HR PCP:  0.06;

PLYMOUTH       DRIZZLE   45  39  80 W10       29.61F
6HR MIN TEMP:  45; 6HR MAX TEMP:  48;

WHITEFIELD     CLOUDY    40  36  86 CALM      29.61F
6HR MIN TEMP:  40; 6HR MAX TEMP:  45;


$$

_____REGIONAL QUEBEC LOCATIONS_____


CITY           SKY/WX    TMP DP  RH WIND       PRES   REMARKS
MONTREAL       MOCLDY    43  36  75 NW8       29.69S
QUEBEC CITY    LGT RAIN  39  37  93 SW3       29.67S
SHERBROOKE     LGT RAIN  37  37 100 VRB2      29.64F

_____REGIONAL ONTARIO LOCATIONS_____


CITY           SKY/WX    TMP DP  RH WIND       PRES   REMARKS
OTTAWA         CLOUDY    39  36  87 NW9       29.74S

______KEY______
VSB  - VISIBILITY IN MILES
WCI  - WIND CHILL INDEX
HX   - HEAT INDEX
$$
NNNN



USA.gov is the U.S. government's official web portal to all federal, state and local government web resources and services.